Baudette, MN

11:20 PM CDT on March 25, 2017 (GMT -0500)
Baudette International

Weather History for KBDE - December, 2012

Change the Weather History Date:

Monday, December 31, 2012

  Actual Average Record
Temperature  
Mean Temperature -6 °F -  
Max Temperature 0 °F 13 °F 38 °F (1943)
Min Temperature -13 °F -5 °F -40 °F (1946)
Degree Days  
Heating Degree Days 72    
Moisture  
Dew Point -12 °F    
Average Humidity 80    
Maximum Humidity 87    
Minimum Humidity 69    
Precipitation  
Precipitation 0.00 in - - ()
Sea Level Pressure  
Sea Level Pressure 30.26 in    
Wind  
Wind Speed 7 mph (NW)    
Max Wind Speed 10 mph    
Max Gust Speed -    
Visibility 10 miles    
Events      
Averages and records for this station are not official NWS values.
T = Trace of Precipitation, MM = Missing Value Source: NWS Daily Summary

Daily Weather History Graph

Daily Weather History Graph

Search for Another Location

Airport or City:

Trip Planner

Search our weather history database for the weather conditions in past years. The results will help you decide how hot, cold, wet, or windy it might be!

Date:

Astronomy

Dec. 31, 2012 Rise Set
Actual Time 8:11 AM CST 4:32 PM CST
Civil Twilight 7:34 AM CST 5:09 PM CST
Nautical Twilight 6:54 AM CST 5:49 PM CST
Astronomical Twilight 6:16 AM CST 6:27 PM CST
Moon 8:22 PM CST (12/31) 9:36 AM CST (12/31)
Length of Visible Light 9h 34m
Length of Day
8h 20m
Waning Gibbous, 90% of the Moon is Illuminated
Dec 31
Waning Gibbous
Jan 4
Last Quarter
Jan 11
New
Jan 18
First Quarter
Jan 26
Full

Hourly Weather History & Observations

Time (CST) Temp. Windchill Dew Point Humidity Pressure Visibility Wind Dir Wind Speed Gust Speed Precip Events Conditions
12:53 AM -2.0 °F -18.7 °F -6.0 °F 83% 30.10 in 10.0 mi NW 10.4 mph - N/A   Partly Cloudy
1:53 AM -4.0 °F -21.2 °F -9.0 °F 79% 30.14 in 10.0 mi NW 10.4 mph - N/A   Clear
2:53 AM -6.0 °F -23.6 °F -9.9 °F 83% 30.16 in 10.0 mi NW 10.4 mph - N/A   Clear
3:53 AM -6.0 °F -18.6 °F -9.9 °F 83% 30.18 in 10.0 mi WNW 5.8 mph - N/A   Clear
4:53 AM -8.0 °F -23.9 °F -11.0 °F 86% 30.20 in 10.0 mi WNW 8.1 mph - N/A   Clear
5:53 AM -8.0 °F -22.5 °F -11.9 °F 83% 30.23 in 10.0 mi WNW 6.9 mph - N/A   Clear
6:53 AM -9.0 °F -25.2 °F -13.0 °F 83% 30.25 in 10.0 mi NW 8.1 mph - N/A   Clear
7:53 AM -11.0 °F -20.4 °F -14.1 °F 86% 30.26 in 10.0 mi WNW 3.5 mph - N/A   Clear
8:53 AM -11.0 °F -26.2 °F -15.0 °F 83% 30.28 in 10.0 mi NW 6.9 mph - N/A   Clear
9:53 AM -9.9 °F -27.5 °F -14.1 °F 82% 30.29 in 10.0 mi NW 9.2 mph - N/A   Clear
10:53 AM -8.0 °F -25.0 °F -11.9 °F 83% 30.30 in 10.0 mi NW 9.2 mph - N/A   Clear
11:53 AM -5.1 °F -19.1 °F -9.9 °F 80% 30.29 in 10.0 mi NW 6.9 mph - N/A   Clear
12:53 PM -2.9 °F -17.7 °F -9.0 °F 75% 30.29 in 10.0 mi NW 8.1 mph - N/A   Clear
1:53 PM -0.9 °F - -8.0 °F 72% 30.29 in 10.0 mi Calm Calm - N/A   Clear
2:53 PM -0.9 °F -11.0 °F -8.0 °F 72% 30.29 in 10.0 mi NW 4.6 mph - N/A   Clear
3:53 PM -0.0 °F -7.9 °F -8.0 °F 69% 30.28 in 10.0 mi NW 3.5 mph - N/A   Clear
4:53 PM -2.0 °F - -8.0 °F 76% 30.30 in 10.0 mi Calm Calm - N/A   Clear
5:53 PM -9.0 °F - -11.9 °F 87% 30.31 in 10.0 mi Calm Calm - N/A   Clear
6:53 PM -11.0 °F - -16.1 °F 78% 30.31 in 10.0 mi Calm Calm - N/A   Clear
7:53 PM -13.0 °F - -18.0 °F 78% 30.32 in 10.0 mi Calm Calm - N/A   Clear
8:53 PM -11.9 °F - -17.0 °F 78% 30.31 in 10.0 mi Calm Calm - N/A   Clear
9:53 PM -11.0 °F - -15.0 °F 83% 30.30 in 10.0 mi Calm Calm - N/A   Clear
10:53 PM -11.9 °F - -16.1 °F 82% 30.30 in 10.0 mi Calm Calm - N/A   Clear
11:53 PM -11.9 °F -21.5 °F -17.0 °F 78% 30.28 in 10.0 mi SSW 3.5 mph - N/A   Clear